When you browse on this site, cookies collect data to enhance your experience and personalize the content and advertising you see.
Visit our Privacy Policy to learn more. By continuing to use the site, you agree to this use of cookies and data.
  • In Hungary
  • List of Countries
  • For 7 days
  • Water Temperature
  • Satellite Maps
  • Weather Map
  • News
  • Weather Widgets
  • user-avatar
    Login

    Hourly Weather Onda

    Today, 19 November, Monday

    Time Temperature Precipitation Wind Pressure Humidity
    00:00 +12°C° 0.7 mm 5 mps 733 mmHg 87%
    01:00 +12°C° 0.7 mm 5 mps 732 mmHg 88%
    02:00 +12°C° 0.7 mm 5 mps 732 mmHg 88%
    03:00 +12°C° 0.7 mm 5 mps 731 mmHg 88%
    04:00 +11°C° 0.5 mm 6 mps 731 mmHg 88%
    05:00 +11°C° 0.5 mm 6 mps 731 mmHg 88%
    06:00 +11°C° 0.5 mm 6 mps 730 mmHg 88%
    07:00 +11°C° 0.6 mm 7 mps 730 mmHg 87%
    08:00 +12°C° 0.6 mm 7 mps 730 mmHg 86%
    09:00 +12°C° 0.6 mm 7 mps 730 mmHg 86%
    10:00 +12°C° 0.3 mm 7 mps 730 mmHg 82%
    11:00 +12°C° 0.3 mm 7 mps 730 mmHg 79%
    12:00 +14°C° 0.3 mm 7 mps 730 mmHg 76%
    13:00 +14°C° 0.3 mm 6 mps 729 mmHg 75%
    14:00 +14°C° 0.3 mm 6 mps 729 mmHg 74%
    15:00 +14°C° 0.3 mm 5 mps 729 mmHg 73%
    16:00 +13°C° 0.4 mm 4 mps 729 mmHg 76%
    17:00 +13°C° 0.4 mm 4 mps 729 mmHg 79%
    18:00 +12°C° 0.4 mm 3 mps 730 mmHg 82%
    19:00 +12°C° 0.5 mm 3 mps 730 mmHg 83%
    20:00 +13°C° 0.5 mm 2 mps 730 mmHg 84%
    21:00 +13°C° 0.5 mm 2 mps 730 mmHg 85%
    22:00 +12°C° 0.3 mm 2 mps 730 mmHg 85%
    23:00 +12°C° 0.3 mm 2 mps 730 mmHg 86%

    Tomorrow, 20 November, Tuesday

    Time Temperature Precipitation Wind Pressure Humidity
    00:00 +12°C° 0.3 mm 2 mps 730 mmHg 87%
    01:00 +11°C° 0 mm 3 mps 730 mmHg 86%
    02:00 +11°C° 0 mm 3 mps 730 mmHg 85%
    03:00 +11°C° 0 mm 3 mps 730 mmHg 85%
    04:00 +11°C° 0 mm 4 mps 729 mmHg 84%
    05:00 +11°C° 0 mm 4 mps 729 mmHg 83%
    06:00 +11°C° 0 mm 4 mps 729 mmHg 82%
    07:00 +12°C° 0 mm 4 mps 729 mmHg 78%
    08:00 +13°C° 0 mm 5 mps 729 mmHg 74%
    09:00 +14°C° 0 mm 5 mps 730 mmHg 70%
    10:00 +15°C° 0 mm 5 mps 730 mmHg 65%
    11:00 +16°C° 0 mm 6 mps 730 mmHg 61%
    12:00 +17°C° 0 mm 7 mps 729 mmHg 57%
    13:00 +17°C° 0.2 mm 7 mps 729 mmHg 57%
    14:00 +16°C° 0.2 mm 7 mps 729 mmHg 57%
    15:00 +16°C° 0.2 mm 8 mps 729 mmHg 57%
    16:00 +15°C° 0.1 mm 7 mps 730 mmHg 60%
    17:00 +14°C° 0.1 mm 7 mps 730 mmHg 62%
    18:00 +12°C° 0.1 mm 7 mps 730 mmHg 65%
    19:00 +12°C° 0 mm 7 mps 731 mmHg 64%
    20:00 +12°C° 0 mm 7 mps 731 mmHg 64%
    21:00 +12°C° 0 mm 7 mps 732 mmHg 64%
    22:00 +11°C° 0 mm 7 mps 732 mmHg 65%
    23:00 +11°C° 0 mm 7 mps 732 mmHg 67%

    Day after tomorrow, 21 November, Wednesday

    Time Temperature Precipitation Wind Pressure Humidity
    00:00 +11°C° 0 mm 7 mps 733 mmHg 68%
    01:00 +11°C° 0 mm 7 mps 733 mmHg 69%
    02:00 +11°C° 0 mm 7 mps 733 mmHg 70%
    03:00 +11°C° 0 mm 7 mps 733 mmHg 71%
    04:00 +11°C° 0 mm 7 mps 734 mmHg 71%
    05:00 +10°C° 0 mm 7 mps 734 mmHg 72%
    06:00 +10°C° 0 mm 6 mps 734 mmHg 72%
    07:00 +11°C° 0 mm 6 mps 735 mmHg 69%
    08:00 +13°C° 0 mm 6 mps 736 mmHg 66%
    09:00 +12°C° 0 mm 7 mps 737 mmHg 64%
    10:00 +14°C° 0 mm 7 mps 737 mmHg 59%
    11:00 +15°C° 0 mm 7 mps 737 mmHg 55%
    12:00 +16°C° 0 mm 7 mps 737 mmHg 50%
    13:00 +16°C° 0 mm 7 mps 737 mmHg 49%
    14:00 +16°C° 0 mm 7 mps 737 mmHg 49%
    15:00 +16°C° 0 mm 7 mps 738 mmHg 48%
    16:00 +15°C° 0 mm 6 mps 738 mmHg 51%
    17:00 +14°C° 0 mm 5 mps 738 mmHg 55%
    18:00 +12°C° 0 mm 5 mps 739 mmHg 59%
    19:00 +12°C° 0 mm 4 mps 739 mmHg 61%
    20:00 +11°C° 0 mm 3 mps 740 mmHg 63%
    21:00 +11°C° 0 mm 3 mps 740 mmHg 64%
    22:00 +10°C° 0 mm 2 mps 740 mmHg 65%
    23:00 +10°C° 0 mm 2 mps 740 mmHg 66%

    22 November, Thursday

    Time Temperature Precipitation Wind Pressure Humidity
    00:00 +11°C° 0 mm 1 mps 740 mmHg 67%
    01:00 +11°C° 0 mm 1 mps 740 mmHg 66%
    02:00 +12°C° 0 mm 1 mps 740 mmHg 66%
    03:00 +12°C° 0 mm 1 mps 740 mmHg 65%
    04:00 +12°C° 0.1 mm 1 mps 740 mmHg 67%
    05:00 +12°C° 0.1 mm 1 mps 740 mmHg 68%
    06:00 +12°C° 0.1 mm 1 mps 741 mmHg 70%
    07:00 +13°C° 0.1 mm 1 mps 741 mmHg 69%
    08:00 +13°C° 0.1 mm 1 mps 741 mmHg 68%
    09:00 +14°C° 0.1 mm 1 mps 742 mmHg 67%
    10:00 +15°C° 0 mm 1 mps 742 mmHg 63%
    11:00 +16°C° 0 mm 2 mps 742 mmHg 59%
    12:00 +17°C° 0 mm 2 mps 741 mmHg 55%
    13:00 +17°C° 0 mm 2 mps 741 mmHg 55%
    14:00 +17°C° 0 mm 2 mps 741 mmHg 55%
    15:00 +17°C° 0 mm 2 mps 741 mmHg 56%
    16:00 +16°C° 0 mm 2 mps 741 mmHg 61%
    17:00 +14°C° 0 mm 1 mps 742 mmHg 67%
    18:00 +13°C° 0 mm 1 mps 742 mmHg 73%
    19:00 +13°C° 0 mm 1 mps 742 mmHg 74%
    20:00 +13°C° 0 mm 1 mps 742 mmHg 74%
    21:00 +12°C° 0 mm 1 mps 743 mmHg 75%
    22:00 +12°C° 0 mm 1 mps 743 mmHg 76%
    23:00 +12°C° 0 mm 1 mps 743 mmHg 76%

    23 November, Friday

    Time Temperature Precipitation Wind Pressure Humidity
    00:00 +12°C° 0 mm 1 mps 743 mmHg 77%
    01:00 +12°C° 0 mm 1 mps 743 mmHg 77%
    02:00 +12°C° 0 mm 1 mps 743 mmHg 77%
    03:00 +12°C° 0 mm 1 mps 743 mmHg 78%
    04:00 +12°C° 0.1 mm 1 mps 743 mmHg 78%
    05:00 +12°C° 0.1 mm 1 mps 743 mmHg 79%
    06:00 +13°C° 0.1 mm 1 mps 743 mmHg 79%
    07:00 +13°C° 0.9 mm 2 mps 743 mmHg 81%
    08:00 +13°C° 0.9 mm 2 mps 743 mmHg 84%
    09:00 +13°C° 0.9 mm 2 mps 744 mmHg 86%
    10:00 +14°C° 0.1 mm 2 mps 744 mmHg 83%
    11:00 +14°C° 0.1 mm 2 mps 743 mmHg 80%
    12:00 +15°C° 0.1 mm 2 mps 743 mmHg 77%
    13:00 +15°C° 0.1 mm 2 mps 743 mmHg 78%
    14:00 +15°C° 0.1 mm 2 mps 742 mmHg 80%
    15:00 +15°C° 0.1 mm 2 mps 742 mmHg 82%
    16:00 +14°C° 0.3 mm 2 mps 742 mmHg 85%
    17:00 +14°C° 0.3 mm 2 mps 742 mmHg 88%
    18:00 +14°C° 0.3 mm 2 mps 742 mmHg 91%
    19:00 +13°C° 0.7 mm 2 mps 742 mmHg 91%
    20:00 +13°C° 0.7 mm 2 mps 742 mmHg 91%
    21:00 +13°C° 0.7 mm 2 mps 742 mmHg 91%
    22:00 +13°C° 0.7 mm 2 mps 742 mmHg 91%
    23:00 +13°C° 0.7 mm 2 mps 742 mmHg 90%

    24 November, Saturday

    Time Temperature Precipitation Wind Pressure Humidity
    00:00 +13°C° 0.7 mm 1 mps 741 mmHg 89%
    01:00 +13°C° 0.1 mm 2 mps 741 mmHg 89%
    02:00 +13°C° 0.1 mm 2 mps 741 mmHg 88%
    03:00 +13°C° 0.1 mm 2 mps 741 mmHg 88%
    04:00 +12°C° 0 mm 2 mps 741 mmHg 86%
    05:00 +11°C° 0 mm 3 mps 741 mmHg 85%
    06:00 +11°C° 0 mm 3 mps 741 mmHg 83%
    07:00 +11°C° 0 mm 4 mps 742 mmHg 78%
    08:00 +12°C° 0 mm 5 mps 742 mmHg 73%
    09:00 +13°C° 0 mm 6 mps 742 mmHg 67%
    10:00 +13°C° 0 mm 6 mps 742 mmHg 61%
    11:00 +14°C° 0 mm 6 mps 742 mmHg 55%
    12:00 +15°C° 0 mm 6 mps 742 mmHg 49%
    13:00 +15°C° 0 mm 6 mps 741 mmHg 50%
    14:00 +15°C° 0 mm 6 mps 741 mmHg 50%
    15:00 +15°C° 0 mm 6 mps 741 mmHg 50%
    16:00 +14°C° 0 mm 6 mps 742 mmHg 53%
    17:00 +13°C° 0 mm 6 mps 742 mmHg 56%
    18:00 +11°C° 0 mm 6 mps 742 mmHg 59%
    19:00 +11°C° 0 mm 6 mps 743 mmHg 62%
    20:00 +10°C° 0 mm 5 mps 743 mmHg 64%
    21:00 +10°C° 0 mm 5 mps 744 mmHg 66%
    22:00 +10°C° 0 mm 5 mps 744 mmHg 67%
    23:00 +9°C° 0 mm 5 mps 744 mmHg 68%
    Show more